Location: Góry Miechowskie
(50.3599°N, 20.1803°E)
Time: 06:52:13
(UTC+00:00)

A-11 Canister half - Pass Details

Date: 20 September 2024
Orbit: 1515 x 1684 km, 47.2° (Epoch: 09 October)

Event Time Altitude Azimuth Distance (km) Brightness Sun altitude
Rises 20:41:40 0° 282° (WNW) 4,690 12.1 -33.8°
Reaches altitude 10° 20:44:47 10° 279° (W) 3,694 11.4 -34.1°
Enters shadow 20:52:41 54° 228° (SW) 1,793 9.1 -34.7°
Maximum altitude 20:53:44 56° 204° (SSW) 1,751 - -34.8°
Drops below altitude 10° 21:02:41 10° 129° (SE) 3,685 - -35.5°
Sets 21:05:47 0° 126° (SE) 4,678 - -35.8°
